SCP
0 0 0 0 0 0 0 0 0 0 0 0 0 0 0 0 0 0 0 0 0 0 0 0 0 0 0 0 0 0 0 0 0 0 0 0 0 0 0 0 0 0 0 0 0 0 0 0 0 0 0 0 0 0
0 0 0 0 0 0 0 0 0 0 -0 0 0 0 0 0 0 0 0 0 0 0 0 0 0 0 0 0 0 0 0 0 0 0 0 0 0 0 0 0 0 0 0 0 0 0 0 0 0 0 0 0 0 0
0 0 0 0 0 0 0 0 0 -0 -0 0 0 0 0 0 0 0 0 0 0 0 0 0 0 0 0 0 0 0 0 0 0 0 0 0 0 0 0 0 0 0 0 0 0 0 0 0 0 0 0 0 0 0
0 0 0 0 0 0 0 0 -0 -0 -0 -0 -0 0 0 0 0 0 0 0 0 0 0 0 0 0 0 0 0 0 0 0 0 0 0 0 0 0 0 0 0 0 0 0 0 0 0 0 0 0 0 0 0 0
0 0 0 0 0 0 0 0 0 -0 -0 -0 -0 -0 0 0 0 0 0 0 0 0 0 0 0 0 0 0 0 0 0 0 0 0 0 0 0 0 0 0 0 0 0 0 0 0 0 0 0 0 0 0 0 0
0 0 0 0 0 0 0 0 -0 0 0 0 -0 -0 -0 -0 0 0 0 0 0 0 0 0 0 0 0 0 0 0 0 0 0 0 0 0 0 0 0 0 0 0 0 0 0 0 0 0 0 0 0 0 0 0
0 0 0 0 -0 0 0 0 -0 0 0 -0 -0 -0 -0 -0 0 0 0 0 0 0 0 0 0 0 0 0 0 0 0 0 0 0 0 0 0 0 0 0 0 0 0 0 0 -0 0 -0 0 0 0 0 0 0
0 0 0 0 0 0 0 0 0 0 0 0 -0 -0 -0 0 0 0 0 0 0 0 0 0 0 0 0 0 0 0 0 0 0 0 0 0 0 0 0 0 0 0 0 0 0 0 0 0 0 0 0 0 0 0
0 0 0 0 0 0 0 0 0 0 0 0 0 0 0 0 0 0 0 0 0 0 0 0 0 0 0 0 0 0 0 0 0 0 0 0 0 0 0 0 0 0 0 0 0 0 0 0 0 0 0 0 0 0
0 0 0 0 0 0 0 0 0 0 0 0 0 0 0 0 0 0 0 0 0 0 0 0 0 0 0 0 0 0 0 0 0 0 0 0 0 0 0 0 0 0 0 0 -0 0 0 0 0 0 0 0 0 0
0 0 0 0 0 0 0 0 0 0 -0 0 0 0 0 0 0 0 0 0 0 0 0 0 0 0 0 0 0 0 0 0 0 0 0 0 0 0 0 0 0 0 0 0 0 0 0 0 0 0 0 0 0 0
0 0 -0 -0 0 0 0 0 0 0 0 0 0 0 0 0 0 0 0 0 0 0 0 0 0 0 0 0 0 0 0 0 0 0 0 0 0 -0 0 -0 -0 -0 -0 -0 -0 0 0 0 0 0 0 0 0 0
0 0 -0 0 0 0 0 0 0 0 0 0 0 0 0 0 0 0 0 0 0 0 0 0 0 0 0 0 0 0 0 -0 -0 0 -0 -0 -0 0 -0 -0 -0 -0 -0 -0 -0 -0 -0 -0 0 0 0 0 0 0
0 0 0 0 0 0 0 0 0 0 0 0 0 0 0 0 0 0 0 0 0 0 0 0 0 0 0 0 0 0 -0 -0 -0 -0 -0 0 0 -0 0 0 0 0 0 0 0 0 0 0 0 0 0 0 0 0
0 0 0 0 0 0 0 0 0 0 0 0 0 0 0 0 0 0 0 0 0 0 0 0 0 0 0 0 0 0 0 -0 -0 -0 0 -0 0 0 0 0 0 0 0 0 0 0 0 0 0 0 0 0 0 0
0 0 0 0 0 0 0 0 0 0 0 0 0 0 0 0 0 0 0 0 0 0 0 0 0 0 0 0 0 0 0 0 0 0 0 0 0 0 0 0 0 0 0 0 0 0 0 0 0 0 0 0 0 0
0 0 0 0 0 0 0 0 0 0 0 0 0 0 0 0 0 0 0 0 0 0 0 0 0 0 0 0 0 0 0 0 0 0 0 0 0 0 0 0 0 0 0 0 0 0 0 0 0 0 0 0 0 0
0 0 0 0 0 0 0 0 0 0 0 0 0 0 0 0 0 0 0 0 0 0 0 0 0 0 0 0 0 0 0 0 0 0 0 0 0 0 0 0 0 0 0 0 0 0 0 0 0 0 0 0 0 0
0 0 0 0 0 0 0 0 0 0 0 0 0 0 0 0 0 0 0 0 0 0 0 0 0 0 0 0 0 0 0 0 0 0 0 0 0 0 0 0 0 0 0 0 0 0 0 0 0 0 0 0 0 0
0 0 0 0 0 0 0 0 0 0 0 0 0 0 0 0 0 0 0 0 0 0 0 0 0 0 0 0 0 0 -0 0 0 0 0 0 0 0 0 0 0 0 0 0 0 0 0 0 0 0 0 0 0 0
0 0 0 0 0 0 0 0 0 0 0 0 0 0 0 0 0 0 0 0 0 0 0 0 0 0 0 0 0 0 -0 0 0 0 0 0 0 0 0 0 0 0 0 0 0 0 0 0 0 0 0 0 0 0
0 0 0 0 0 0 0 0 0 0 0 0 0 0 0 0 0 0 0 0 0 0 0 0 0 0 0 0 0 0 0 0 0 0 0 0 0 0 0 0 0 0 0 0 0 0 0 0 0 0 0 0 0 0
0 0 0 0 0 0 0 0 0 0 0 0 0 0 0 0 0 0 0 0 0 0 0 0 0 0 0 0 0 0 0 0 0 0 0 0 0 0 0 0 0 0 0 0 0 0 0 0 0 0 0 0 0 0
0 0 0 0 0 0 0 0 0 0 0 0 0 0 0 0 0 0 0 0 0 0 0 0 0 0 0 0 0 0 0 0 0 0 0 0 0 0 0 0 0 0 0 0 0 0 0 0 0 0 0 0 0 0
0 0 0 0 0 0 0 0 0 0 0 0 0 0 0 0 0 0 0 0 0 0 0 0 0 0 0 0 0 0 0 0 0 0 0 0 0 0 0 0 0 0 0 0 0 0 -0 -0 -0 0 0 -0 0 0
0 0 0 0 0 0 0 0 0 0 0 0 0 0 0 0 0 0 0 0 0 0 0 0 0 0 0 0 0 -0 0 0 0 0 0 0 0 0 0 0 0 0 0 0 0 0 -0 -0 -0 -0 -0 -0 -0 -0
0 0 0 0 0 0 0 0 0 0 0 0 0 0 0 0 0 0 0 0 0 0 0 0 0 0 0 0 0 0 0 0 0 0 0 0 0 0 0 0 0 0 0 0 0 -0 -0 -0 -0 -0 -0 -0 -0 -0
0 0 0 0 0 0 0 0 0 0 0 0 0 0 0 0 0 0 0 0 0 0 0 0 0 0 0 0 0 0 0 0 0 0 0 0 0 0 0 0 0 0 0 0 0 0 -0 -0 -0 -0 -0 -0 -0 -0
0 0 0 0 0 0 0 0 0 0 0 0 0 0 0 0 0 0 0 0 0 0 0 0 0 0 0 0 0 0 0 0 0 0 0 0 0 0 0 0 0 0 0 0 0 0 0 -0 -0 -0 -0 -0 -0 -0
0 0 0 0 0 0 0 0 0 0 0 0 0 0 -0 -0 0 0 0 0 0 0 0 0 -0 0 0 0 0 0 0 0 0 0 0 0 0 0 0 0 0 0 0 0 0 0 0 0 0 -0 -0 -0 -0 -0
0 0 0 0 0 0 0 0 0 0 0 0 0 0 0 0 0 0 0 0 0 0 0 0 0 0 0 0 0 0 0 0 0 0 0 0 0 0 0 0 -0 -0 -0 0 0 0 0 0 0 -0 -0 -0 -0 -0
0 0 0 0 0 0 0 0 0 0 0 0 0 0 0 0 0 0 0 0 0 0 0 0 0 0 0 0 0 0 0 0 0 0 0 0 0 0 0 0 -0 -0 -0 -0 -0 -0 -0 0 0 0 0 0 0 -0
0 0 0 0 0 0 0 0 -0 0 0 0 0 0 0 0 0 0 0 0 0 0 0 0 0 0 0 0 0 0 0 0 0 0 0 0 0 0 0 0 0 0 0 -0 -0 -0 -0 -0 -0 -0 -0 -0 -0 -0
Wind_Speed_500mb
44 41 40 39 38 37 36 35 34 33 29 21 21 19 21 21 7 11 2 5 6 6 6 4 6 8 5 7 5 7 5 10 8 8 5 6 5 4 4 3 2 6 6 4 2 3 11 49 17 5 20 55 43 39
46 46 39 36 36 36 36 32 29 27 24 18 16 17 17 19 7 8 11 7 9 8 6 9 10 3 10 11 7 10 6 3 3 8 2 3 2 3 3 5 8 2 7 7 9 8 7 16 12 33 40 40 31 32
45 45 43 38 36 30 31 28 26 26 17 17 14 17 18 15 6 7 2 5 11 7 2 6 10 13 13 13 13 2 4 5 5 6 9 3 4 5 5 6 5 3 3 4 5 5 12 14 51 57 61 47 28 13
41 42 41 40 37 30 25 25 25 20 17 19 14 13 18 9 6 11 11 16 7 1 5 11 21 20 17 15 14 13 12 7 4 3 5 4 3 4 5 4 4 7 6 1 4 12 21 8 53 54 60 53 29 21
41 43 42 40 30 29 26 25 24 21 23 16 11 14 12 8 9 14 14 18 24 7 3 7 32 29 20 16 9 7 5 5 1 3 5 3 3 3 3 2 5 3 7 5 9 6 6 22 53 52 54 51 46 27
44 44 42 38 39 25 23 23 20 20 17 18 13 13 10 13 16 4 2 10 17 19 4 4 9 23 20 16 11 9 6 6 3 3 1 2 2 1 4 5 11 11 8 18 12 35 44 51 51 39 46 39 41 34
42 42 43 40 33 27 22 20 15 18 19 12 13 9 9 9 5 6 5 7 17 10 5 6 7 11 15 10 10 11 10 6 3 1 1 2 1 2 4 6 10 18 25 29 30 30 28 27 36 42 38 39 30 28
39 42 43 38 33 29 25 22 20 22 16 7 11 14 18 17 13 15 16 12 10 8 9 5 4 8 22 13 7 15 10 4 9 4 2 2 3 2 6 14 8 16 22 18 31 39 49 49 44 46 40 40 36 34
36 39 40 39 32 28 28 26 20 17 15 11 14 10 8 9 8 12 13 14 18 11 7 7 4 1 16 16 11 7 8 6 8 4 4 4 4 6 10 11 5 16 19 30 40 38 39 44 45 41 40 42 43 43
37 36 33 35 35 31 29 25 17 12 10 5 6 6 7 7 9 10 6 7 8 12 11 7 6 4 14 15 11 9 9 4 5 5 11 3 7 16 15 8 10 20 21 27 34 45 50 51 44 45 48 49 60 61
35 33 29 29 29 29 28 28 19 13 7 6 7 7 8 7 7 6 7 10 11 9 9 6 8 3 14 6 3 9 1 2 6 7 3 4 6 7 3 10 26 38 41 39 39 42 46 46 46 44 45 44 45 52
35 29 21 25 29 29 26 24 22 18 11 9 6 6 7 7 5 7 4 4 8 4 5 6 6 7 5 6 5 7 3 5 3 15 4 6 7 11 14 37 59 65 69 69 68 69 71 65 60 55 52 52 51 49
35 29 16 17 26 26 25 19 17 15 8 7 7 5 9 9 16 9 10 5 5 9 14 10 4 4 3 8 6 4 5 2 8 5 5 8 10 18 34 62 88 94 92 88 85 81 77 73 70 61 63 64 62 63
36 27 20 21 32 27 16 16 10 8 7 6 9 11 7 7 10 7 6 3 4 9 24 19 6 4 3 4 1 3 3 1 6 4 8 7 20 47 77 81 74 74 73 74 85 83 84 81 77 75 70 69 72 78
31 22 23 28 24 16 14 11 11 10 7 8 8 8 7 6 8 9 14 4 12 19 19 7 3 2 4 3 3 2 5 4 6 6 6 38 64 77 75 75 79 82 80 78 78 77 76 72 77 80 85 83 81 84
24 24 28 28 23 20 14 12 11 11 8 9 12 6 14 4 12 12 18 14 20 22 6 5 5 5 5 3 3 1 4 4 7 8 54 73 72 79 86 90 90 86 81 79 76 80 80 81 80 84 86 83 84 91
21 25 23 22 18 21 12 8 10 11 10 8 9 11 13 5 6 11 14 16 19 12 5 5 8 5 8 4 3 4 4 10 38 54 76 73 74 74 83 87 89 91 81 81 69 66 75 82 78 83 87 88 87 87
20 23 24 20 14 10 24 16 10 11 12 12 7 16 13 9 12 10 15 17 14 9 7 4 2 3 3 3 5 6 24 43 57 60 63 69 72 73 71 78 83 80 76 73 66 72 82 86 87 89 90 93 96 90
21 23 26 22 14 11 10 13 12 9 12 8 11 16 8 9 15 16 17 17 11 7 4 2 4 3 5 14 18 40 48 47 49 52 54 69 63 65 65 72 88 87 88 84 81 85 86 85 78 76 76 80 84 87
23 23 22 28 20 9 8 11 10 9 8 13 15 16 9 11 21 21 17 19 13 5 2 3 7 10 14 43 40 38 33 34 41 53 60 57 68 81 89 77 78 102 93 93 93 93 90 80 65 58 60 63 80 87
20 22 25 25 17 16 10 9 11 9 7 8 24 15 10 16 17 21 21 20 11 5 6 10 27 38 37 34 29 29 29 33 43 47 55 62 72 71 77 79 76 83 92 91 94 95 94 86 69 43 42 49 58 71
17 20 18 19 16 10 13 15 6 9 5 6 12 14 10 12 16 18 20 15 10 8 13 30 39 43 34 26 33 41 42 48 48 53 52 59 68 68 70 74 76 72 84 88 94 97 95 102 89 44 39 43 40 35
12 12 10 12 8 8 5 14 9 12 10 20 11 8 9 11 20 24 8 6 10 25 36 37 36 36 30 34 38 37 45 54 55 43 47 58 64 60 60 66 69 66 77 87 86 92 99 105 103 77 47 43 33 35
10 6 7 6 9 5 6 7 7 9 9 8 7 7 10 16 19 15 7 17 26 44 51 44 23 26 32 42 49 50 52 56 55 39 40 48 55 61 62 63 61 64 59 81 82 86 91 101 106 105 82 54 43 32
5 5 6 6 5 5 6 6 7 7 3 6 5 6 10 10 4 5 4 20 46 50 50 45 37 26 33 40 48 55 52 51 56 45 44 46 48 55 56 62 61 64 58 65 72 86 88 90 107 121 116 102 78 56
6 5 3 8 4 3 1 4 4 4 3 5 5 5 4 3 8 7 14 34 37 36 34 33 41 38 34 41 49 56 60 49 49 43 41 45 48 49 51 57 59 64 64 54 62 70 80 86 88 100 115 123 112 100
6 6 5 7 4 3 6 5 5 8 6 7 5 6 3 5 9 12 33 37 42 39 34 33 35 33 35 42 41 33 41 48 46 42 37 49 50 43 46 49 48 49 57 58 54 54 67 74 75 76 89 113 118 114
4 9 5 8 8 10 5 5 5 4 5 10 6 10 6 6 4 20 26 39 36 40 36 38 39 36 33 39 40 40 44 50 53 47 38 38 46 52 51 48 43 44 45 47 52 54 56 60 68 72 72 72 72 93
3 12 3 7 7 10 11 6 5 7 9 13 6 3 1 11 28 41 45 37 35 35 33 41 42 38 35 31 30 39 43 56 65 62 56 53 55 55 50 47 49 49 46 46 48 51 54 54 47 59 66 69 67 66
6 9 5 8 8 8 11 10 8 13 12 18 17 19 26 23 33 40 44 36 36 36 38 41 46 47 38 26 30 41 41 46 53 50 52 49 47 44 46 46 48 49 51 49 45 43 43 51 62 64 54 63 63 66
5 1 6 7 8 11 12 13 22 19 12 24 27 14 4 5 19 40 39 31 34 36 40 46 46 42 33 26 31 34 37 39 43 55 57 52 46 42 43 48 52 55 59 59 55 54 54 57 61 66 65 66 70 73
2 3 8 6 8 8 9 18 6 13 11 21 13 10 10 5 13 27 33 27 29 34 38 36 35 37 37 32 31 28 26 24 31 48 39 41 46 46 44 49 51 52 53 55 59 59 60 62 64 66 69 71 73 75
2 7 9 10 7 8 16 14 10 7 5 2 4 8 8 3 4 24 26 27 29 31 34 34 28 29 27 28 28 26 19 10 22 33 25 29 37 39 40 40 40 42 49 49 45 49 54 57 60 63 64 66 64 63
Wind_Direction_500mb
347 345 345 345 344 345 344 341 343 344 338 338 339 334 341 334 334 189 181 17 344 312 286 192 95 62 68 56 106 338 40 356 31 68 124 201 165 228 357 273 201 149 124 216 114 163 264 356 5 8 312 300 305 297
351 350 343 344 345 344 345 342 348 347 352 345 342 325 342 341 356 176 211 274 303 297 290 292 291 250 141 74 37 38 104 154 97 88 63 98 100 38 116 219 344 211 168 188 165 205 223 354 342 341 350 325 329 316
350 353 353 346 343 341 349 351 347 355 3 350 342 330 347 348 29 127 94 287 270 273 309 85 94 128 128 106 70 89 74 97 88 63 144 142 106 122 158 247 312 329 84 122 79 249 301 323 1 5 9 2 8 338
357 355 353 355 359 1 358 355 359 7 356 347 351 338 346 6 66 112 68 39 50 49 97 63 108 91 106 103 90 84 92 78 74 52 83 115 145 182 209 219 183 228 359 140 310 312 337 294 1 358 358 4 22 36
353 352 349 348 351 357 355 354 355 0 1 5 2 353 8 35 108 104 70 49 36 45 148 95 86 76 104 116 97 71 11 323 5 80 72 233 222 111 352 22 268 236 195 142 212 218 266 299 333 341 349 356 358 6
352 355 352 348 358 351 353 354 355 3 6 360 356 9 46 100 114 84 30 30 19 17 37 79 78 46 86 95 107 89 61 68 72 93 208 292 311 119 110 217 267 205 140 359 319 311 306 307 316 328 332 338 346 351
359 2 2 0 359 2 6 13 3 6 356 354 4 33 67 99 94 82 44 356 3 23 46 48 12 36 48 68 64 49 43 45 35 69 45 311 6 95 106 200 267 326 323 323 327 332 315 319 309 306 312 308 314 326
2 3 5 7 10 13 10 4 356 355 4 23 44 77 82 89 75 52 50 34 23 49 52 79 309 41 20 21 31 12 2 7 37 357 316 353 294 143 235 252 302 345 339 326 320 305 293 296 302 293 291 284 283 293
358 358 2 6 5 4 4 6 5 17 34 72 88 81 60 41 40 38 39 39 43 54 86 66 67 285 2 22 12 10 10 40 346 38 327 9 317 234 239 200 339 354 359 341 340 327 314 287 285 293 290 272 273 277
351 349 353 2 9 6 2 2 3 12 32 77 6 26 51 32 13 2 20 24 42 41 49 68 359 335 358 12 23 10 23 37 29 289 316 70 268 277 272 256 339 354 346 343 343 345 344 332 308 293 296 281 268 271
351 349 353 355 359 7 9 11 14 8 12 33 41 50 27 7 13 24 34 40 4 45 34 21 17 6 20 43 345 24 118 350 33 295 38 315 283 250 184 325 334 333 329 324 325 319 317 314 312 308 291 284 279 269
350 348 350 6 3 3 359 3 12 26 40 41 52 31 15 15 23 63 32 18 33 47 27 357 13 22 18 19 56 24 67 3 293 328 12 278 257 219 311 323 325 323 322 318 316 313 312 307 303 295 290 285 278 271
346 342 319 331 337 346 345 347 355 5 14 23 24 28 13 2 38 50 10 44 41 13 355 335 339 358 52 36 70 25 13 315 311 32 260 235 277 256 301 313 314 314 312 309 307 306 305 299 296 284 283 275 270 263
349 345 341 322 340 346 354 345 353 11 40 41 33 26 29 23 46 16 14 32 28 337 341 345 341 6 10 44 60 12 299 265 5 300 250 256 287 310 313 307 303 300 299 293 294 295 293 292 289 284 281 283 270 261
354 3 359 352 357 5 7 27 38 50 48 54 37 47 49 3 33 6 12 1 353 345 337 327 311 328 38 68 30 5 337 298 214 259 258 306 309 304 305 307 307 303 298 293 294 289 289 288 287 283 281 278 274 271
8 16 7 6 12 19 36 57 62 43 53 53 52 61 4 26 10 14 5 2 357 354 13 29 19 40 28 9 358 258 9 280 261 276 306 305 309 315 318 316 314 309 303 299 302 291 288 283 278 275 275 270 267 264
24 24 12 11 26 37 56 60 42 47 52 48 40 25 3 331 324 336 340 353 358 3 33 26 35 13 293 324 269 167 218 246 286 308 319 329 330 335 337 337 327 321 323 323 308 308 311 303 292 283 273 272 267 262
21 17 18 8 15 26 37 42 56 53 55 35 39 356 357 352 353 8 357 352 5 19 13 44 291 280 303 280 266 235 268 299 313 321 333 344 349 350 347 350 349 345 339 331 329 319 308 302 290 281 278 275 267 260
25 21 16 24 31 39 32 36 43 67 47 17 9 18 12 3 10 7 1 1 13 355 10 28 250 230 240 235 266 295 306 311 303 317 335 349 347 348 354 358 352 346 342 336 329 319 311 308 299 286 278 270 262 258
24 14 19 34 37 52 57 37 30 47 28 2 7 359 358 3 4 9 13 7 5 23 14 227 227 251 279 316 318 320 327 326 319 318 320 336 341 341 344 346 344 354 350 350 342 340 333 325 319 309 296 284 265 252
29 38 40 39 37 50 66 40 40 22 2 11 1 1 343 358 13 5 12 4 356 360 278 280 322 350 358 7 3 344 337 323 333 324 326 325 345 348 355 351 353 0 354 353 350 347 350 347 342 319 315 306 300 281
28 43 43 29 31 58 49 32 35 354 14 16 357 5 14 15 356 2 357 9 340 340 335 348 354 357 3 16 12 356 353 354 353 352 358 353 356 2 1 2 0 359 1 0 1 353 353 359 7 1 353 341 325 305
10 32 36 23 30 55 67 2 9 10 25 353 18 21 8 12 352 354 24 349 327 347 350 356 11 20 12 13 21 9 358 358 1 8 2 2 357 6 8 7 6 2 1 11 8 9 10 11 15 22 19 18 26 18
13 31 15 31 37 61 13 14 12 357 9 29 21 19 8 6 13 28 332 326 352 9 13 13 21 37 27 14 9 10 5 2 6 4 353 353 354 11 18 17 17 16 11 24 19 17 17 18 21 22 30 36 35 34
11 26 38 36 34 37 37 21 9 36 16 353 40 19 23 3 13 311 293 334 359 12 3 1 17 25 13 6 4 4 4 0 360 7 16 14 12 17 18 20 28 24 19 24 28 28 28 31 33 34 33 38 46 52
68 32 40 22 31 55 338 49 22 357 353 22 41 15 50 46 7 339 330 346 2 0 351 357 351 356 360 358 359 355 354 3 4 8 20 28 28 25 19 19 22 23 25 25 31 35 37 37 36 40 42 42 43 43
34 356 20 16 10 64 69 64 50 51 34 14 342 11 29 47 5 319 338 356 2 17 22 20 23 22 17 10 13 13 17 16 13 17 31 29 25 24 21 21 24 24 17 18 28 37 43 45 48 45 48 52 48 45
16 11 17 4 60 46 91 58 58 32 355 352 20 42 352 9 284 354 2 11 9 21 28 29 30 32 32 23 9 15 27 35 33 27 21 20 18 12 13 21 28 20 16 24 28 35 40 49 53 57 58 56 56 56
47 358 42 65 51 49 41 42 71 60 50 50 90 121 89 43 34 30 22 17 22 19 21 22 21 18 17 26 29 32 32 28 21 22 24 24 19 18 23 30 33 32 33 35 39 47 48 41 57 60 62 62 61 62
14 14 95 71 65 16 25 37 67 75 90 130 134 124 108 75 39 29 19 13 13 23 28 22 11 3 5 21 35 36 28 22 15 19 17 22 23 22 29 26 22 28 31 34 39 45 46 50 51 50 50 54 61 62
316 50 89 95 102 48 13 81 58 37 124 149 153 133 122 20 43 26 18 27 33 24 15 11 9 13 29 38 30 23 25 31 37 27 21 27 27 35 38 38 36 36 38 42 44 46 49 54 59 58 58 60 58 58
280 150 132 114 145 136 109 115 159 331 42 159 157 103 41 63 20 13 16 20 25 29 24 19 25 29 28 28 30 25 27 39 21 15 32 37 35 36 38 34 33 37 38 41 48 51 52 56 61 63 64 64 64 64
245 166 122 118 131 124 142 144 214 300 294 186 63 31 30 57 40 13 17 15 18 16 13 5 7 18 24 24 21 18 7 1 16 18 20 24 26 25 28 27 30 40 40 41 45 46 49 55 59 58 56 54 53 53
Wind_Speed_850mb
44 41 40 39 38 37 36 35 34 33 29 21 21 19 21 21 7 11 2 5 6 6 6 4 6 8 5 7 5 7 5 10 8 8 5 6 5 4 4 3 2 6 6 4 2 3 11 49 17 5 20 55 43 39
46 46 39 36 36 36 36 32 29 27 24 18 16 17 17 19 7 8 11 7 9 8 6 9 10 3 10 11 7 10 6 3 3 8 2 3 2 3 3 5 8 2 7 7 9 8 7 16 12 33 40 40 31 32
45 45 43 38 36 30 31 28 26 26 17 17 14 17 18 15 6 7 2 5 11 7 2 6 10 13 13 13 13 2 4 5 5 6 9 3 4 5 5 6 5 3 3 4 5 5 12 14 51 57 61 47 28 13
41 42 41 40 37 30 25 25 25 20 17 19 14 13 18 9 6 11 11 16 7 1 5 11 21 20 17 15 14 13 12 7 4 3 5 4 3 4 5 4 4 7 6 1 4 12 21 8 53 54 60 53 29 21
41 43 42 40 30 29 26 25 24 21 23 16 11 14 12 8 9 14 14 18 24 7 3 7 32 29 20 16 9 7 5 5 1 3 5 3 3 3 3 2 5 3 7 5 9 6 6 22 53 52 54 51 46 27
44 44 42 38 39 25 23 23 20 20 17 18 13 13 10 13 16 4 2 10 17 19 4 4 9 23 20 16 11 9 6 6 3 3 1 2 2 1 4 5 11 11 8 18 12 35 44 51 51 39 46 39 41 34
42 42 43 40 33 27 22 20 15 18 19 12 13 9 9 9 5 6 5 7 17 10 5 6 7 11 15 10 10 11 10 6 3 1 1 2 1 2 4 6 10 18 25 29 30 30 28 27 36 42 38 39 30 28
39 42 43 38 33 29 25 22 20 22 16 7 11 14 18 17 13 15 16 12 10 8 9 5 4 8 22 13 7 15 10 4 9 4 2 2 3 2 6 14 8 16 22 18 31 39 49 49 44 46 40 40 36 34
36 39 40 39 32 28 28 26 20 17 15 11 14 10 8 9 8 12 13 14 18 11 7 7 4 1 16 16 11 7 8 6 8 4 4 4 4 6 10 11 5 16 19 30 40 38 39 44 45 41 40 42 43 43
37 36 33 35 35 31 29 25 17 12 10 5 6 6 7 7 9 10 6 7 8 12 11 7 6 4 14 15 11 9 9 4 5 5 11 3 7 16 15 8 10 20 21 27 34 45 50 51 44 45 48 49 60 61
35 33 29 29 29 29 28 28 19 13 7 6 7 7 8 7 7 6 7 10 11 9 9 6 8 3 14 6 3 9 1 2 6 7 3 4 6 7 3 10 26 38 41 39 39 42 46 46 46 44 45 44 45 52
35 29 21 25 29 29 26 24 22 18 11 9 6 6 7 7 5 7 4 4 8 4 5 6 6 7 5 6 5 7 3 5 3 15 4 6 7 11 14 37 59 65 69 69 68 69 71 65 60 55 52 52 51 49
35 29 16 17 26 26 25 19 17 15 8 7 7 5 9 9 16 9 10 5 5 9 14 10 4 4 3 8 6 4 5 2 8 5 5 8 10 18 34 62 88 94 92 88 85 81 77 73 70 61 63 64 62 63
36 27 20 21 32 27 16 16 10 8 7 6 9 11 7 7 10 7 6 3 4 9 24 19 6 4 3 4 1 3 3 1 6 4 8 7 20 47 77 81 74 74 73 74 85 83 84 81 77 75 70 69 72 78
31 22 23 28 24 16 14 11 11 10 7 8 8 8 7 6 8 9 14 4 12 19 19 7 3 2 4 3 3 2 5 4 6 6 6 38 64 77 75 75 79 82 80 78 78 77 76 72 77 80 85 83 81 84
24 24 28 28 23 20 14 12 11 11 8 9 12 6 14 4 12 12 18 14 20 22 6 5 5 5 5 3 3 1 4 4 7 8 54 73 72 79 86 90 90 86 81 79 76 80 80 81 80 84 86 83 84 91
21 25 23 22 18 21 12 8 10 11 10 8 9 11 13 5 6 11 14 16 19 12 5 5 8 5 8 4 3 4 4 10 38 54 76 73 74 74 83 87 89 91 81 81 69 66 75 82 78 83 87 88 87 87
20 23 24 20 14 10 24 16 10 11 12 12 7 16 13 9 12 10 15 17 14 9 7 4 2 3 3 3 5 6 24 43 57 60 63 69 72 73 71 78 83 80 76 73 66 72 82 86 87 89 90 93 96 90
21 23 26 22 14 11 10 13 12 9 12 8 11 16 8 9 15 16 17 17 11 7 4 2 4 3 5 14 18 40 48 47 49 52 54 69 63 65 65 72 88 87 88 84 81 85 86 85 78 76 76 80 84 87
23 23 22 28 20 9 8 11 10 9 8 13 15 16 9 11 21 21 17 19 13 5 2 3 7 10 14 43 40 38 33 34 41 53 60 57 68 81 89 77 78 102 93 93 93 93 90 80 65 58 60 63 80 87
20 22 25 25 17 16 10 9 11 9 7 8 24 15 10 16 17 21 21 20 11 5 6 10 27 38 37 34 29 29 29 33 43 47 55 62 72 71 77 79 76 83 92 91 94 95 94 86 69 43 42 49 58 71
17 20 18 19 16 10 13 15 6 9 5 6 12 14 10 12 16 18 20 15 10 8 13 30 39 43 34 26 33 41 42 48 48 53 52 59 68 68 70 74 76 72 84 88 94 97 95 102 89 44 39 43 40 35
12 12 10 12 8 8 5 14 9 12 10 20 11 8 9 11 20 24 8 6 10 25 36 37 36 36 30 34 38 37 45 54 55 43 47 58 64 60 60 66 69 66 77 87 86 92 99 105 103 77 47 43 33 35
10 6 7 6 9 5 6 7 7 9 9 8 7 7 10 16 19 15 7 17 26 44 51 44 23 26 32 42 49 50 52 56 55 39 40 48 55 61 62 63 61 64 59 81 82 86 91 101 106 105 82 54 43 32
5 5 6 6 5 5 6 6 7 7 3 6 5 6 10 10 4 5 4 20 46 50 50 45 37 26 33 40 48 55 52 51 56 45 44 46 48 55 56 62 61 64 58 65 72 86 88 90 107 121 116 102 78 56
6 5 3 8 4 3 1 4 4 4 3 5 5 5 4 3 8 7 14 34 37 36 34 33 41 38 34 41 49 56 60 49 49 43 41 45 48 49 51 57 59 64 64 54 62 70 80 86 88 100 115 123 112 100
6 6 5 7 4 3 6 5 5 8 6 7 5 6 3 5 9 12 33 37 42 39 34 33 35 33 35 42 41 33 41 48 46 42 37 49 50 43 46 49 48 49 57 58 54 54 67 74 75 76 89 113 118 114
4 9 5 8 8 10 5 5 5 4 5 10 6 10 6 6 4 20 26 39 36 40 36 38 39 36 33 39 40 40 44 50 53 47 38 38 46 52 51 48 43 44 45 47 52 54 56 60 68 72 72 72 72 93
3 12 3 7 7 10 11 6 5 7 9 13 6 3 1 11 28 41 45 37 35 35 33 41 42 38 35 31 30 39 43 56 65 62 56 53 55 55 50 47 49 49 46 46 48 51 54 54 47 59 66 69 67 66
6 9 5 8 8 8 11 10 8 13 12 18 17 19 26 23 33 40 44 36 36 36 38 41 46 47 38 26 30 41 41 46 53 50 52 49 47 44 46 46 48 49 51 49 45 43 43 51 62 64 54 63 63 66
5 1 6 7 8 11 12 13 22 19 12 24 27 14 4 5 19 40 39 31 34 36 40 46 46 42 33 26 31 34 37 39 43 55 57 52 46 42 43 48 52 55 59 59 55 54 54 57 61 66 65 66 70 73
2 3 8 6 8 8 9 18 6 13 11 21 13 10 10 5 13 27 33 27 29 34 38 36 35 37 37 32 31 28 26 24 31 48 39 41 46 46 44 49 51 52 53 55 59 59 60 62 64 66 69 71 73 75
2 7 9 10 7 8 16 14 10 7 5 2 4 8 8 3 4 24 26 27 29 31 34 34 28 29 27 28 28 26 19 10 22 33 25 29 37 39 40 40 40 42 49 49 45 49 54 57 60 63 64 66 64 63
Wind_Direction_850mb
347 345 345 345 344 345 344 341 343 344 338 338 339 334 341 334 334 189 181 17 344 312 286 192 95 62 68 56 106 338 40 356 31 68 124 201 165 228 357 273 201 149 124 216 114 163 264 356 5 8 312 300 305 297
351 350 343 344 345 344 345 342 348 347 352 345 342 325 342 341 356 176 211 274 303 297 290 292 291 250 141 74 37 38 104 154 97 88 63 98 100 38 116 219 344 211 168 188 165 205 223 354 342 341 350 325 329 316
350 353 353 346 343 341 349 351 347 355 3 350 342 330 347 348 29 127 94 287 270 273 309 85 94 128 128 106 70 89 74 97 88 63 144 142 106 122 158 247 312 329 84 122 79 249 301 323 1 5 9 2 8 338
357 355 353 355 359 1 358 355 359 7 356 347 351 338 346 6 66 112 68 39 50 49 97 63 108 91 106 103 90 84 92 78 74 52 83 115 145 182 209 219 183 228 359 140 310 312 337 294 1 358 358 4 22 36
353 352 349 348 351 357 355 354 355 0 1 5 2 353 8 35 108 104 70 49 36 45 148 95 86 76 104 116 97 71 11 323 5 80 72 233 222 111 352 22 268 236 195 142 212 218 266 299 333 341 349 356 358 6
352 355 352 348 358 351 353 354 355 3 6 360 356 9 46 100 114 84 30 30 19 17 37 79 78 46 86 95 107 89 61 68 72 93 208 292 311 119 110 217 267 205 140 359 319 311 306 307 316 328 332 338 346 351
359 2 2 0 359 2 6 13 3 6 356 354 4 33 67 99 94 82 44 356 3 23 46 48 12 36 48 68 64 49 43 45 35 69 45 311 6 95 106 200 267 326 323 323 327 332 315 319 309 306 312 308 314 326
2 3 5 7 10 13 10 4 356 355 4 23 44 77 82 89 75 52 50 34 23 49 52 79 309 41 20 21 31 12 2 7 37 357 316 353 294 143 235 252 302 345 339 326 320 305 293 296 302 293 291 284 283 293
358 358 2 6 5 4 4 6 5 17 34 72 88 81 60 41 40 38 39 39 43 54 86 66 67 285 2 22 12 10 10 40 346 38 327 9 317 234 239 200 339 354 359 341 340 327 314 287 285 293 290 272 273 277
351 349 353 2 9 6 2 2 3 12 32 77 6 26 51 32 13 2 20 24 42 41 49 68 359 335 358 12 23 10 23 37 29 289 316 70 268 277 272 256 339 354 346 343 343 345 344 332 308 293 296 281 268 271
351 349 353 355 359 7 9 11 14 8 12 33 41 50 27 7 13 24 34 40 4 45 34 21 17 6 20 43 345 24 118 350 33 295 38 315 283 250 184 325 334 333 329 324 325 319 317 314 312 308 291 284 279 269
350 348 350 6 3 3 359 3 12 26 40 41 52 31 15 15 23 63 32 18 33 47 27 357 13 22 18 19 56 24 67 3 293 328 12 278 257 219 311 323 325 323 322 318 316 313 312 307 303 295 290 285 278 271
346 342 319 331 337 346 345 347 355 5 14 23 24 28 13 2 38 50 10 44 41 13 355 335 339 358 52 36 70 25 13 315 311 32 260 235 277 256 301 313 314 314 312 309 307 306 305 299 296 284 283 275 270 263
349 345 341 322 340 346 354 345 353 11 40 41 33 26 29 23 46 16 14 32 28 337 341 345 341 6 10 44 60 12 299 265 5 300 250 256 287 310 313 307 303 300 299 293 294 295 293 292 289 284 281 283 270 261
354 3 359 352 357 5 7 27 38 50 48 54 37 47 49 3 33 6 12 1 353 345 337 327 311 328 38 68 30 5 337 298 214 259 258 306 309 304 305 307 307 303 298 293 294 289 289 288 287 283 281 278 274 271
8 16 7 6 12 19 36 57 62 43 53 53 52 61 4 26 10 14 5 2 357 354 13 29 19 40 28 9 358 258 9 280 261 276 306 305 309 315 318 316 314 309 303 299 302 291 288 283 278 275 275 270 267 264
24 24 12 11 26 37 56 60 42 47 52 48 40 25 3 331 324 336 340 353 358 3 33 26 35 13 293 324 269 167 218 246 286 308 319 329 330 335 337 337 327 321 323 323 308 308 311 303 292 283 273 272 267 262
21 17 18 8 15 26 37 42 56 53 55 35 39 356 357 352 353 8 357 352 5 19 13 44 291 280 303 280 266 235 268 299 313 321 333 344 349 350 347 350 349 345 339 331 329 319 308 302 290 281 278 275 267 260
25 21 16 24 31 39 32 36 43 67 47 17 9 18 12 3 10 7 1 1 13 355 10 28 250 230 240 235 266 295 306 311 303 317 335 349 347 348 354 358 352 346 342 336 329 319 311 308 299 286 278 270 262 258
24 14 19 34 37 52 57 37 30 47 28 2 7 359 358 3 4 9 13 7 5 23 14 227 227 251 279 316 318 320 327 326 319 318 320 336 341 341 344 346 344 354 350 350 342 340 333 325 319 309 296 284 265 252
29 38 40 39 37 50 66 40 40 22 2 11 1 1 343 358 13 5 12 4 356 360 278 280 322 350 358 7 3 344 337 323 333 324 326 325 345 348 355 351 353 0 354 353 350 347 350 347 342 319 315 306 300 281
28 43 43 29 31 58 49 32 35 354 14 16 357 5 14 15 356 2 357 9 340 340 335 348 354 357 3 16 12 356 353 354 353 352 358 353 356 2 1 2 0 359 1 0 1 353 353 359 7 1 353 341 325 305
10 32 36 23 30 55 67 2 9 10 25 353 18 21 8 12 352 354 24 349 327 347 350 356 11 20 12 13 21 9 358 358 1 8 2 2 357 6 8 7 6 2 1 11 8 9 10 11 15 22 19 18 26 18
13 31 15 31 37 61 13 14 12 357 9 29 21 19 8 6 13 28 332 326 352 9 13 13 21 37 27 14 9 10 5 2 6 4 353 353 354 11 18 17 17 16 11 24 19 17 17 18 21 22 30 36 35 34
11 26 38 36 34 37 37 21 9 36 16 353 40 19 23 3 13 311 293 334 359 12 3 1 17 25 13 6 4 4 4 0 360 7 16 14 12 17 18 20 28 24 19 24 28 28 28 31 33 34 33 38 46 52
68 32 40 22 31 55 338 49 22 357 353 22 41 15 50 46 7 339 330 346 2 0 351 357 351 356 360 358 359 355 354 3 4 8 20 28 28 25 19 19 22 23 25 25 31 35 37 37 36 40 42 42 43 43
34 356 20 16 10 64 69 64 50 51 34 14 342 11 29 47 5 319 338 356 2 17 22 20 23 22 17 10 13 13 17 16 13 17 31 29 25 24 21 21 24 24 17 18 28 37 43 45 48 45 48 52 48 45
16 11 17 4 60 46 91 58 58 32 355 352 20 42 352 9 284 354 2 11 9 21 28 29 30 32 32 23 9 15 27 35 33 27 21 20 18 12 13 21 28 20 16 24 28 35 40 49 53 57 58 56 56 56
47 358 42 65 51 49 41 42 71 60 50 50 90 121 89 43 34 30 22 17 22 19 21 22 21 18 17 26 29 32 32 28 21 22 24 24 19 18 23 30 33 32 33 35 39 47 48 41 57 60 62 62 61 62
14 14 95 71 65 16 25 37 67 75 90 130 134 124 108 75 39 29 19 13 13 23 28 22 11 3 5 21 35 36 28 22 15 19 17 22 23 22 29 26 22 28 31 34 39 45 46 50 51 50 50 54 61 62
316 50 89 95 102 48 13 81 58 37 124 149 153 133 122 20 43 26 18 27 33 24 15 11 9 13 29 38 30 23 25 31 37 27 21 27 27 35 38 38 36 36 38 42 44 46 49 54 59 58 58 60 58 58
280 150 132 114 145 136 109 115 159 331 42 159 157 103 41 63 20 13 16 20 25 29 24 19 25 29 28 28 30 25 27 39 21 15 32 37 35 36 38 34 33 37 38 41 48 51 52 56 61 63 64 64 64 64
245 166 122 118 131 124 142 144 214 300 294 186 63 31 30 57 40 13 17 15 18 16 13 5 7 18 24 24 21 18 7 1 16 18 20 24 26 25 28 27 30 40 40 41 45 46 49 55 59 58 56 54 53 53